Voltar ao catálogo

STARLINK-35885

AtivoComunicaçõesVLEO
NORAD 66890·PAYLOAD·🇺🇸 United States

Lançado Dec 4, 2025 de Vandenberg Space Force Base

Loading…

Próximas Passagens (próximas 24 horas)

TLE

AtualizadoSource: CelesTrak SupGP

Época: Sep 14, 2026, 23:12 UTC

1 66890C 25283N   26257.96715278  .00005056  00000+0  14934-3 0  2572
2 66890  53.1583 221.5688 0001340  89.6587 199.6987 15.34397179    18

Acompanhe STARLINK-35885 em tempo real com AllMySat

Download on the App Store